Regional Weather Roundup
Issued by NWS

Home | Current Version | Previous Version | Text Only | Print | Product List | Glossary On
Versions: 1 2 3 4 5 6 7 8 9 10 11 12 13 14 15 16 17 18 19 20 21 22 23 24 25 26 27 28 29 30 31 32 33 34 35 36 37 38 39 40 41 42 43 44 45 46 47 48 49 50
471
ASUS43 KTOP 220559
RWRKS

WEATHER ROUNDUP FOR KANSAS
NATIONAL WEATHER SERVICE GOODLAND KS
100 AM CDT SUN APR 22 2018

NOTE:  "FAIR" INDICATES FEW OR NO CLOUDS BELOW 12,000 FEET WITH NO
SIGNIFICANT WEATHER AND/OR OBSTRUCTIONS TO VISIBILITY.

KSZ001>006-013>018-027>032-041>047-220700-
NORTHWEST KANSAS

CITY           SKY/WX    TMP DP  RH WIND       PRES   REMARKS
GOODLAND       CLOUDY    39  38  96 CALM      30.21F FOG
6HR MIN TEMP:  39; 6HR MAX TEMP:  41;

HAYS           CLOUDY    43  41  93 N9        30.22F
HILL CITY      CLOUDY    43  42  97 NE9       30.25S FOG
6HR MIN TEMP:  43; 6HR MAX TEMP:  44;

RUSSELL        LGT RAIN  43  43 100 N8        30.20S FOG
6HR MIN TEMP:  43; 6HR MAX TEMP:  45; 6HR PCP:  0.06;

$$

KSZ061>065-074>080-084>089-220700-
SOUTHWEST KANSAS

CITY           SKY/WX    TMP DP  RH WIND       PRES   REMARKS
DODGE CITY     CLOUDY    43  41  93 N12       30.19F
6HR MIN TEMP:  43; 6HR MAX TEMP:  45; 6HR PCP:  0.01;

GARDEN CITY    CLOUDY    42  40  92 N12       30.20
6HR MIN TEMP:  41; 6HR MAX TEMP:  44;

GREAT BEND     LGT RAIN  43  42  97 N8        30.20F
LIBERAL        PTCLDY    40  39  97 NW6       30.20R
$$

KSZ066>073-081>083-090>101-220700-
SOUTHEAST KANSAS

CITY           SKY/WX    TMP DP  RH WIND       PRES   REMARKS
CHANUTE        LGT RAIN  48  46  93 N8        30.09S FOG
6HR MIN TEMP:  47; 6HR MAX TEMP:  48; 6HR PCP:  0.15;

COFFEYVILLE    HVY RAIN  48  48 100 NW13      30.07S FOG
6HR MIN TEMP:  48; 6HR MAX TEMP:  48; 6HR PCP:  0.36;

HUTCHINSON     CLOUDY    44  43  96 N9        30.15F
6HR MIN TEMP:  44; 6HR MAX TEMP:  45; 6HR PCP:  0.13;

MEDICINE LODGE   N/A     42  41  96 N7        30.16F
NEWTON         LGT RAIN  43  42  97 N14       30.14F
PARSONS        HVY RAIN  48  47  96 N7        30.08S FOG
6HR MIN TEMP:  47; 6HR MAX TEMP:  48; 6HR PCP:  0.28;

WICHITA INTL   LGT RAIN  45  44  97 N13       30.13F
6HR MIN TEMP:  45; 6HR MAX TEMP:  46; 6HR PCP:  0.14;

WICHITA JABRA  LGT RAIN  44  44 100 N14       30.12F
6HR MIN TEMP:  43; 6HR MAX TEMP:  45;

WICHITA MCCONL LGT RAIN  44  44  99 N13       30.12F
WINFIELD       CLOUDY    45  45 100 N13       30.12F
6HR MIN TEMP:  45; 6HR MAX TEMP:  46; 6HR PCP:  0.11;

$$

KSZ007>012-019>026-033>040-048>060-102>105-220700-
NORTHEAST KANSAS

CITY           SKY/WX    TMP DP  RH WIND       PRES   REMARKS
CONCORDIA      LGT RAIN  43  41  93 NW10      30.20F
6HR MIN TEMP:  43; 6HR MAX TEMP:  45; 6HR PCP:  0.25;

EMPORIA        LGT RAIN  45  43  93 N8        30.11F
6HR MIN TEMP:  44; 6HR MAX TEMP:  45; 6HR PCP:  0.31;

LAWRENCE       CLOUDY    54  33  45 NE8       30.12F
6HR MIN TEMP:  49; 6HR MAX TEMP:  54;

MANHATTAN      CLOUDY    47  43  86 NW3       30.16F
6HR MIN TEMP:  46; 6HR MAX TEMP:  48; 6HR PCP: TRACE;

OLATHE IND     CLOUDY    55  32  41 NE6       30.12F
6HR MIN TEMP:  51; 6HR MAX TEMP:  63;

OLATHE EXE     CLOUDY    54  30  40 NE8       30.12R
6HR MIN TEMP:  54; 6HR MAX TEMP:  61;

SALINA         CLOUDY    46  44  93 NW12      30.17F
6HR MIN TEMP:  46; 6HR MAX TEMP:  47; 6HR PCP:  0.34;

TOPEKA BILLARD CLOUDY    51  38  60 N6        30.12F
6HR MIN TEMP:  47; 6HR MAX TEMP:  51; 6HR PCP: TRACE;

TOPEKA FORBES  CLOUDY    48  44  86 N7        30.12F
6HR MIN TEMP:  47; 6HR MAX TEMP:  51; 6HR PCP: TRACE;

$$




USA.gov is the U.S. government's official web portal to all federal, state and local government web resources and services.